7 * 24
多渠道服务支持
STARLINK-34454 是 SpaceX Starlink 卫星互联网项目中的一颗低轨卫星,属于第 6 批次发射的星链卫星之一。该卫星于 2023 年发射,运行在约 550 公里的轨道高度,旨在为全球用户提供高速互联网服务。作为星链网络的一部分,它支持宽带通信,提升偏远地区的网络覆盖。该卫星采用可再生太阳能供电,并具备自动避撞功能,以确保太空安全。星链项目计划部署数万颗卫星,构建全球性高速网络基础设施。
美国
(US)
| 数据来源 | 国际轨道数据 |
| 星历时间: | 2025-11-09T03:54:44+0800 19小时前 查看轨道信息 |
| 半长轴: | 6950.161km |
| 偏心率: | 0.0003031 |
| 轨道倾角: | 70.002° |
| 近地点辐角 | 271.979° |
| 升交点赤经 | 339.366° |
| 平近点角 | 88.103° |
| 近地点: | 569.919km |
| 远地点: | 574.133km |
| 周期: | 96.106分钟 |
| 每日圈数: | 14.983405 |